contact:dominique.lefevre@mio.osupytheas.fr, maurice.libes@osupytheas.fr, didier.mallarino@osupytheas.fr
Project:EMSO http://www.emso-fr.org/EMSO-France
Depth: 2436.0 m
Title:EMSO Ligure Ouest : Data MII capteur MICROCAT
DateTime_Computer,Latitude,Longitude,Temperature,Conductivity,Pressure,DateTime_Instrument
DateTime_Computer,Latitude,Longitude,degC,S m-1,dbar,DateTime_Instrument
2022-03-22T00:02:16Z,42.805,6.029,13.3054,4.60105,2470.497,2022-3-22T02:03:52Z
2022-03-22T00:05:19Z,42.805,6.029,13.3036,4.60095,2470.497,2022-3-22T02:06:56Z
2022-03-22T00:08:22Z,42.805,6.029,13.3031,4.60122,2470.52,2022-3-22T02:09:59Z
2022-03-22T00:11:25Z,42.805,6.029,13.3038,4.60090,2470.483,2022-3-22T02:13:02Z
2022-03-22T00:14:29Z,42.805,6.029,13.3048,4.60112,2470.483,2022-3-22T02:16:05Z
2022-03-22T00:17:32Z,42.805,6.029,13.3033,4.60118,2470.507,2022-3-22T02:19:08Z
2022-03-22T00:20:35Z,42.805,6.029,13.3036,4.60096,2470.46,2022-3-22T02:22:11Z
2022-03-22T00:23:38Z,42.805,6.029,13.3027,4.60120,2470.497,2022-3-22T02:25:14Z
2022-03-22T00:26:41Z,42.805,6.029,13.3037,4.60094,2470.474,2022-3-22T02:28:17Z
2022-03-22T00:29:44Z,42.805,6.029,13.3039,4.60097,2470.437,2022-3-22T02:31:21Z
2022-03-22T00:32:47Z,42.805,6.029,13.3039,4.60112,2470.483,2022-3-22T02:34:24Z
2022-03-22T00:35:50Z,42.805,6.029,13.3040,4.60112,2470.46,2022-3-22T02:37:27Z
2022-03-22T00:38:53Z,42.805,6.029,13.3042,4.60108,2470.46,2022-3-22T02:40:30Z
2022-03-22T00:41:57Z,42.805,6.029,13.3013,4.60087,2470.437,2022-3-22T02:43:33Z
2022-03-22T00:45:00Z,42.805,6.029,13.3031,4.60081,2470.474,2022-3-22T02:46:36Z
2022-03-22T00:48:03Z,42.805,6.029,13.3040,4.60097,2470.46,2022-3-22T02:49:39Z
2022-03-22T00:51:06Z,42.805,6.029,13.3036,4.60114,2470.427,2022-3-22T02:52:42Z
2022-03-22T00:54:09Z,42.805,6.029,13.3033,4.60105,2470.437,2022-3-22T02:55:45Z
2022-03-22T00:57:12Z,42.805,6.029,13.3060,4.60122,2470.437,2022-3-22T02:58:49Z
2022-03-22T01:00:15Z,42.805,6.029,13.3029,4.60114,2470.45,2022-3-22T03:01:52Z
2022-03-22T01:03:18Z,42.805,6.029,13.3026,4.60109,2470.437,2022-3-22T03:04:55Z
2022-03-22T01:06:22Z,42.805,6.029,13.3030,4.60058,2470.427,2022-3-22T03:07:58Z
2022-03-22T01:09:25Z,42.805,6.029,13.3025,4.60068,2470.423,2022-3-22T03:11:01Z
2022-03-22T01:12:28Z,42.805,6.029,13.3029,4.60112,2470.46,2022-3-22T03:14:04Z
2022-03-22T01:15:31Z,42.805,6.029,13.3029,4.60106,2470.474,2022-3-22T03:17:07Z
2022-03-22T01:18:34Z,42.805,6.029,13.3033,4.60104,2470.427,2022-3-22T03:20:10Z
2022-03-22T01:21:37Z,42.805,6.029,13.3031,4.60101,2470.437,2022-3-22T03:23:14Z
2022-03-22T01:24:40Z,42.805,6.029,13.3034,4.60094,2470.437,2022-3-22T03:26:17Z
2022-03-22T01:27:43Z,42.805,6.029,13.3034,4.60117,2470.437,2022-3-22T03:29:20Z
2022-03-22T01:30:47Z,42.805,6.029,13.3039,4.60110,2470.39,2022-3-22T03:32:23Z
2022-03-22T01:33:50Z,42.805,6.029,13.3012,4.60103,2470.437,2022-3-22T03:35:26Z
2022-03-22T01:36:53Z,42.805,6.029,13.3031,4.60108,2470.437,2022-3-22T03:38:29Z
2022-03-22T01:39:56Z,42.805,6.029,13.3024,4.60112,2470.413,2022-3-22T03:41:32Z
2022-03-22T01:42:59Z,42.805,6.029,13.3025,4.60096,2470.437,2022-3-22T03:44:35Z
2022-03-22T01:46:02Z,42.805,6.029,13.3021,4.60101,2470.413,2022-3-22T03:47:39Z
2022-03-22T01:49:05Z,42.805,6.029,13.3038,4.60102,2470.39,2022-3-22T03:50:42Z
2022-03-22T01:52:08Z,42.805,6.029,13.3027,4.60106,2470.38,2022-3-22T03:53:45Z
2022-03-22T01:55:12Z,42.805,6.029,13.3025,4.60111,2470.413,2022-3-22T03:56:48Z
2022-03-22T01:58:15Z,42.805,6.029,13.3025,4.60104,2470.427,2022-3-22T03:59:51Z
2022-03-22T02:01:18Z,42.805,6.029,13.3030,4.60117,2470.413,2022-3-22T04:02:54Z
2022-03-22T02:04:21Z,42.805,6.029,13.3009,4.60073,2470.413,2022-3-22T04:05:57Z
2022-03-22T02:07:24Z,42.805,6.029,13.3026,4.60119,2470.39,2022-3-22T04:09:00Z
2022-03-22T02:10:27Z,42.805,6.029,13.3046,4.60106,2470.366,2022-3-22T04:12:04Z
2022-03-22T02:13:30Z,42.805,6.029,13.3024,4.60105,2470.427,2022-3-22T04:15:07Z
2022-03-22T02:16:33Z,42.805,6.029,13.3026,4.60102,2470.366,2022-3-22T04:18:10Z
2022-03-22T02:19:36Z,42.805,6.029,13.3034,4.60092,2470.39,2022-3-22T04:21:13Z
2022-03-22T02:22:40Z,42.805,6.029,13.3021,4.60099,2470.404,2022-3-22T04:24:16Z
2022-03-22T02:25:43Z,42.805,6.029,13.3018,4.60119,2470.38,2022-3-22T04:27:19Z
2022-03-22T02:28:46Z,42.805,6.029,13.3023,4.60122,2470.404,2022-3-22T04:30:22Z
2022-03-22T02:31:49Z,42.805,6.029,13.3025,4.60062,2470.38,2022-3-22T04:33:25Z
2022-03-22T02:34:52Z,42.805,6.029,13.3036,4.60104,2470.366,2022-3-22T04:36:29Z
2022-03-22T02:37:55Z,42.805,6.029,13.3031,4.60108,2470.38,2022-3-22T04:39:32Z
2022-03-22T02:40:58Z,42.805,6.029,13.3030,4.60092,2470.357,2022-3-22T04:42:35Z
2022-03-22T02:44:01Z,42.805,6.029,13.3022,4.60061,2470.38,2022-3-22T04:45:38Z
2022-03-22T02:47:05Z,42.805,6.029,13.3018,4.60068,2470.343,2022-3-22T04:48:41Z
2022-03-22T02:50:08Z,42.805,6.029,13.3031,4.60056,2470.39,2022-3-22T04:51:44Z
2022-03-22T02:53:11Z,42.805,6.029,13.3029,4.60098,2470.357,2022-3-22T04:54:47Z
2022-03-22T02:56:14Z,42.805,6.029,13.3010,4.60108,2470.38,2022-3-22T04:57:50Z
2022-03-22T02:59:17Z,42.805,6.029,13.3024,4.60084,2470.39,2022-3-22T05:00:54Z
2022-03-22T03:02:20Z,42.805,6.029,13.3022,4.60070,2470.357,2022-3-22T05:03:57Z
2022-03-22T03:05:23Z,42.805,6.029,13.3041,4.60072,2470.404,2022-3-22T05:07:00Z
2022-03-22T03:08:26Z,42.805,6.029,13.3026,4.60046,2470.38,2022-3-22T05:10:03Z
2022-03-22T03:11:30Z,42.805,6.029,13.3017,4.60061,2470.357,2022-3-22T05:13:06Z
2022-03-22T03:14:33Z,42.805,6.029,13.3029,4.60080,2470.366,2022-3-22T05:16:09Z
2022-03-22T03:17:36Z,42.805,6.029,13.3032,4.60075,2470.357,2022-3-22T05:19:12Z
2022-03-22T03:20:39Z,42.805,6.029,13.3007,4.60073,2470.366,2022-3-22T05:22:15Z
2022-03-22T03:23:42Z,42.805,6.029,13.3018,4.60060,2470.366,2022-3-22T05:25:18Z
2022-03-22T03:26:45Z,42.805,6.029,13.3015,4.60061,2470.366,2022-3-22T05:28:22Z
2022-03-22T03:29:48Z,42.805,6.029,13.3026,4.60066,2470.38,2022-3-22T05:31:25Z
2022-03-22T03:32:51Z,42.805,6.029,13.3028,4.60059,2470.413,2022-3-22T05:34:28Z
2022-03-22T03:35:55Z,42.805,6.029,13.3022,4.60058,2470.366,2022-3-22T05:37:31Z
2022-03-22T03:38:58Z,42.805,6.029,13.3014,4.60049,2470.357,2022-3-22T05:40:34Z
2022-03-22T03:42:01Z,42.805,6.029,13.3025,4.60056,2470.357,2022-3-22T05:43:37Z
2022-03-22T03:45:04Z,42.805,6.029,13.3021,4.60054,2470.357,2022-3-22T05:46:40Z
2022-03-22T03:48:07Z,42.805,6.029,13.3011,4.60054,2470.39,2022-3-22T05:49:43Z
2022-03-22T03:51:10Z,42.805,6.029,13.3019,4.60054,2470.404,2022-3-22T05:52:47Z
2022-03-22T03:54:13Z,42.805,6.029,13.3015,4.60044,2470.343,2022-3-22T05:55:50Z
2022-03-22T03:57:16Z,42.805,6.029,13.3020,4.60050,2470.343,2022-3-22T05:58:53Z
2022-03-22T04:00:19Z,42.805,6.029,13.3025,4.60044,2470.343,2022-3-22T06:01:56Z
2022-03-22T04:03:23Z,42.805,6.029,13.3021,4.60067,2470.38,2022-3-22T06:04:59Z
2022-03-22T04:06:26Z,42.805,6.029,13.3015,4.60053,2470.343,2022-3-22T06:08:02Z
2022-03-22T04:09:29Z,42.805,6.029,13.3015,4.60054,2470.357,2022-3-22T06:11:05Z
2022-03-22T04:12:32Z,42.805,6.029,13.3022,4.60046,2470.366,2022-3-22T06:14:08Z
2022-03-22T04:15:35Z,42.805,6.029,13.3018,4.60053,2470.38,2022-3-22T06:17:11Z
2022-03-22T04:18:38Z,42.805,6.029,13.3020,4.60043,2470.39,2022-3-22T06:20:15Z
2022-03-22T04:21:41Z,42.805,6.029,13.3026,4.60042,2470.343,2022-3-22T06:23:18Z
2022-03-22T04:24:44Z,42.805,6.029,13.3015,4.60054,2470.343,2022-3-22T06:26:21Z
2022-03-22T04:27:48Z,42.805,6.029,13.3020,4.60057,2470.366,2022-3-22T06:29:24Z
2022-03-22T04:30:51Z,42.805,6.029,13.3014,4.60044,2470.38,2022-3-22T06:32:27Z
2022-03-22T04:33:54Z,42.805,6.029,13.3019,4.60052,2470.366,2022-3-22T06:35:30Z
2022-03-22T04:36:57Z,42.805,6.029,13.3021,4.60058,2470.343,2022-3-22T06:38:33Z
2022-03-22T04:40:00Z,42.805,6.029,13.3021,4.60052,2470.38,2022-3-22T06:41:36Z
2022-03-22T04:43:03Z,42.805,6.029,13.3022,4.60052,2470.366,2022-3-22T06:44:40Z
2022-03-22T04:46:06Z,42.805,6.029,13.3013,4.60049,2470.357,2022-3-22T06:47:43Z
2022-03-22T04:49:09Z,42.805,6.029,13.3021,4.60052,2470.357,2022-3-22T06:50:46Z
2022-03-22T04:52:13Z,42.805,6.029,13.3014,4.60061,2470.343,2022-3-22T06:53:49Z
2022-03-22T04:55:16Z,42.805,6.029,13.3023,4.60048,2470.366,2022-3-22T06:56:52Z
2022-03-22T04:58:19Z,42.805,6.029,13.3021,4.60057,2470.404,2022-3-22T06:59:55Z
2022-03-22T05:01:22Z,42.805,6.029,13.3022,4.60049,2470.343,2022-3-22T07:02:58Z
2022-03-22T05:04:25Z,42.805,6.029,13.3024,4.60046,2470.38,2022-3-22T07:06:01Z
2022-03-22T05:07:28Z,42.805,6.029,13.3018,4.60053,2470.427,2022-3-22T07:09:05Z
2022-03-22T05:10:31Z,42.805,6.029,13.3024,4.60053,2470.366,2022-3-22T07:12:08Z
2022-03-22T05:13:34Z,42.805,6.029,13.3021,4.60055,2470.366,2022-3-22T07:15:11Z
2022-03-22T05:16:37Z,42.805,6.029,13.3021,4.60061,2470.38,2022-3-22T07:18:14Z
2022-03-22T05:19:41Z,42.805,6.029,13.3022,4.60057,2470.357,2022-3-22T07:21:17Z
2022-03-22T05:22:44Z,42.805,6.029,13.3019,4.60054,2470.357,2022-3-22T07:24:20Z
2022-03-22T05:25:47Z,42.805,6.029,13.3023,4.60043,2470.39,2022-3-22T07:27:23Z
2022-03-22T05:28:50Z,42.805,6.029,13.3015,4.60054,2470.38,2022-3-22T07:30:26Z
2022-03-22T05:31:53Z,42.805,6.029,13.3029,4.60044,2470.39,2022-3-22T07:33:30Z
2022-03-22T05:34:56Z,42.805,6.029,13.3015,4.60055,2470.357,2022-3-22T07:36:33Z
2022-03-22T05:37:59Z,42.805,6.029,13.3024,4.60050,2470.343,2022-3-22T07:39:36Z
2022-03-22T05:41:02Z,42.805,6.029,13.3024,4.60052,2470.343,2022-3-22T07:42:39Z
2022-03-22T05:44:06Z,42.805,6.029,13.3024,4.60055,2470.413,2022-3-22T07:45:42Z
2022-03-22T05:47:09Z,42.805,6.029,13.3025,4.60052,2470.366,2022-3-22T07:48:45Z
2022-03-22T05:50:12Z,42.805,6.029,13.3026,4.60053,2470.427,2022-3-22T07:51:48Z
2022-03-22T05:53:15Z,42.805,6.029,13.3033,4.60063,2470.376,2022-3-22T07:54:51Z
2022-03-22T05:56:18Z,42.805,6.029,13.3029,4.60053,2470.39,2022-3-22T07:57:54Z
2022-03-22T05:59:21Z,42.805,6.029,13.3023,4.60060,2470.404,2022-3-22T08:00:58Z
2022-03-22T06:02:24Z,42.805,6.029,13.3031,4.60048,2470.427,2022-3-22T08:04:01Z
2022-03-22T06:05:27Z,42.805,6.029,13.3021,4.60057,2470.39,2022-3-22T08:07:04Z
2022-03-22T06:08:30Z,42.805,6.029,13.3031,4.60056,2470.38,2022-3-22T08:10:07Z
2022-03-22T06:11:34Z,42.805,6.029,13.3023,4.60060,2470.39,2022-3-22T08:13:10Z
2022-03-22T06:14:37Z,42.805,6.029,13.3038,4.60046,2470.427,2022-3-22T08:16:13Z
2022-03-22T06:17:40Z,42.805,6.029,13.3026,4.60052,2470.413,2022-3-22T08:19:16Z
2022-03-22T06:20:43Z,42.805,6.029,13.3021,4.60041,2470.413,2022-3-22T08:22:19Z
2022-03-22T06:23:46Z,42.805,6.029,13.3020,4.60050,2470.39,2022-3-22T08:25:23Z
2022-03-22T06:26:49Z,42.805,6.029,13.3030,4.60062,2470.427,2022-3-22T08:28:26Z
2022-03-22T06:29:52Z,42.805,6.029,13.3038,4.60056,2470.437,2022-3-22T08:31:29Z
2022-03-22T06:32:55Z,42.805,6.029,13.3029,4.60054,2470.427,2022-3-22T08:34:32Z
2022-03-22T06:35:59Z,42.805,6.029,13.3025,4.60058,2470.45,2022-3-22T08:37:35Z
2022-03-22T06:39:02Z,42.805,6.029,13.3032,4.60052,2470.437,2022-3-22T08:40:38Z
2022-03-22T06:42:05Z,42.805,6.029,13.3030,4.60053,2470.45,2022-3-22T08:43:41Z
2022-03-22T06:45:08Z,42.805,6.029,13.3026,4.60053,2470.437,2022-3-22T08:46:44Z
2022-03-22T06:48:11Z,42.805,6.029,13.3027,4.60053,2470.45,2022-3-22T08:49:48Z
2022-03-22T06:51:14Z,42.805,6.029,13.3032,4.60049,2470.46,2022-3-22T08:52:51Z
2022-03-22T06:54:17Z,42.805,6.029,13.3026,4.60058,2470.437,2022-3-22T08:55:54Z
2022-03-22T06:57:20Z,42.805,6.029,13.3024,4.60047,2470.483,2022-3-22T08:58:57Z
2022-03-22T07:00:24Z,42.805,6.029,13.3015,4.60057,2470.437,2022-3-22T09:02:00Z
2022-03-22T07:03:27Z,42.805,6.029,13.3024,4.60065,2470.474,2022-3-22T09:05:03Z
2022-03-22T07:06:30Z,42.805,6.029,13.3034,4.60055,2470.46,2022-3-22T09:08:06Z
2022-03-22T07:09:33Z,42.805,6.029,13.3031,4.60057,2470.474,2022-3-22T09:11:09Z
2022-03-22T07:12:36Z,42.805,6.029,13.3031,4.60052,2470.474,2022-3-22T09:14:12Z
2022-03-22T07:15:39Z,42.805,6.029,13.3019,4.60062,2470.46,2022-3-22T09:17:16Z
2022-03-22T07:18:42Z,42.805,6.029,13.3028,4.60061,2470.46,2022-3-22T09:20:19Z
2022-03-22T07:21:45Z,42.805,6.029,13.3031,4.60057,2470.46,2022-3-22T09:23:22Z
2022-03-22T07:24:49Z,42.805,6.029,13.3027,4.60045,2470.474,2022-3-22T09:26:25Z
2022-03-22T07:27:52Z,42.805,6.029,13.3039,4.60052,2470.497,2022-3-22T09:29:28Z
2022-03-22T07:30:55Z,42.805,6.029,13.3031,4.60059,2470.483,2022-3-22T09:32:31Z
2022-03-22T07:33:58Z,42.805,6.029,13.3031,4.60052,2470.46,2022-3-22T09:35:34Z
2022-03-22T07:37:01Z,42.805,6.029,13.3026,4.60062,2470.474,2022-3-22T09:38:37Z
2022-03-22T07:40:04Z,42.805,6.029,13.3030,4.60049,2470.483,2022-3-22T09:41:41Z
2022-03-22T07:43:07Z,42.805,6.029,13.3026,4.60056,2470.483,2022-3-22T09:44:44Z
2022-03-22T07:46:10Z,42.805,6.029,13.3031,4.60061,2470.497,2022-3-22T09:47:47Z
2022-03-22T07:49:14Z,42.805,6.029,13.3024,4.60057,2470.46,2022-3-22T09:50:50Z
2022-03-22T07:52:17Z,42.805,6.029,13.3036,4.60066,2470.497,2022-3-22T09:53:53Z
2022-03-22T07:55:20Z,42.805,6.029,13.3038,4.60067,2470.497,2022-3-22T09:56:56Z
2022-03-22T07:58:23Z,42.805,6.029,13.3029,4.60062,2470.483,2022-3-22T09:59:59Z
2022-03-22T08:01:26Z,42.805,6.029,13.3029,4.60067,2470.507,2022-3-22T10:03:02Z
2022-03-22T08:04:29Z,42.805,6.029,13.3036,4.60051,2470.483,2022-3-22T10:06:06Z
2022-03-22T08:07:32Z,42.805,6.029,13.3036,4.60059,2470.483,2022-3-22T10:09:09Z
2022-03-22T08:10:35Z,42.805,6.029,13.3030,4.60054,2470.53,2022-3-22T10:12:12Z
2022-03-22T08:13:39Z,42.805,6.029,13.3028,4.60059,2470.507,2022-3-22T10:15:15Z
2022-03-22T08:16:42Z,42.805,6.029,13.3036,4.60055,2470.497,2022-3-22T10:18:18Z
2022-03-22T08:19:45Z,42.805,6.029,13.3046,4.60068,2470.507,2022-3-22T10:21:21Z
2022-03-22T08:22:48Z,42.805,6.029,13.3036,4.60067,2470.507,2022-3-22T10:24:24Z
2022-03-22T08:25:51Z,42.805,6.029,13.3035,4.60074,2470.52,2022-3-22T10:27:27Z
2022-03-22T08:28:54Z,42.805,6.029,13.3029,4.60066,2470.507,2022-3-22T10:30:31Z
2022-03-22T08:31:57Z,42.805,6.029,13.3043,4.60063,2470.553,2022-3-22T10:33:34Z
2022-03-22T08:35:00Z,42.805,6.029,13.3046,4.60062,2470.507,2022-3-22T10:36:37Z
2022-03-22T08:38:04Z,42.805,6.029,13.3045,4.60055,2470.483,2022-3-22T10:39:40Z
2022-03-22T08:41:07Z,42.805,6.029,13.3034,4.60063,2470.52,2022-3-22T10:42:43Z
2022-03-22T08:44:10Z,42.805,6.029,13.3043,4.60056,2470.52,2022-3-22T10:45:46Z
2022-03-22T08:47:13Z,42.805,6.029,13.3039,4.60076,2470.544,2022-3-22T10:48:49Z
2022-03-22T08:50:16Z,42.805,6.029,13.3033,4.60053,2470.53,2022-3-22T10:51:52Z
2022-03-22T08:53:19Z,42.805,6.029,13.3041,4.60060,2470.553,2022-3-22T10:54:56Z
2022-03-22T08:56:22Z,42.805,6.029,13.3035,4.60058,2470.53,2022-3-22T10:57:59Z
2022-03-22T08:59:25Z,42.805,6.029,13.3041,4.60054,2470.507,2022-3-22T11:01:02Z
2022-03-22T09:02:28Z,42.805,6.029,13.3029,4.60079,2470.544,2022-3-22T11:04:05Z
2022-03-22T09:05:32Z,42.805,6.029,13.3031,4.60060,2470.53,2022-3-22T11:07:08Z
2022-03-22T09:08:35Z,42.805,6.029,13.3036,4.60072,2470.507,2022-3-22T11:10:11Z
2022-03-22T09:11:38Z,42.805,6.029,13.3035,4.60070,2470.53,2022-3-22T11:13:14Z
2022-03-22T09:14:41Z,42.805,6.029,13.3041,4.60061,2470.507,2022-3-22T11:16:17Z
2022-03-22T09:17:44Z,42.805,6.029,13.3038,4.60077,2470.544,2022-3-22T11:19:21Z
2022-03-22T09:20:47Z,42.805,6.029,13.3029,4.60056,2470.52,2022-3-22T11:22:24Z
2022-03-22T09:23:50Z,42.805,6.029,13.3020,4.60058,2470.53,2022-3-22T11:25:27Z
2022-03-22T09:26:53Z,42.805,6.029,13.3031,4.60060,2470.507,2022-3-22T11:28:30Z
2022-03-22T09:29:57Z,42.805,6.029,13.3028,4.60068,2470.553,2022-3-22T11:31:33Z
2022-03-22T09:33:00Z,42.805,6.029,13.3027,4.60060,2470.507,2022-3-22T11:34:36Z
2022-03-22T09:36:03Z,42.805,6.029,13.3025,4.60067,2470.544,2022-3-22T11:37:39Z
2022-03-22T09:39:06Z,42.805,6.029,13.3032,4.60062,2470.507,2022-3-22T11:40:42Z
2022-03-22T09:42:09Z,42.805,6.029,13.3035,4.60063,2470.53,2022-3-22T11:43:46Z
2022-03-22T09:45:12Z,42.805,6.029,13.3051,4.60058,2470.507,2022-3-22T11:46:49Z
2022-03-22T09:48:15Z,42.805,6.029,13.3041,4.60059,2470.507,2022-3-22T11:49:52Z
2022-03-22T09:51:19Z,42.805,6.029,13.3030,4.60064,2470.507,2022-3-22T11:52:55Z
2022-03-22T09:54:22Z,42.805,6.029,13.3036,4.60077,2470.567,2022-3-22T11:55:58Z
2022-03-22T10:21:12Z,42.805,6.029,13.3031,4.60070,2470.507,2022-3-22T12:22:49Z
2022-03-22T10:24:16Z,42.805,6.029,13.3032,4.60092,2470.544,2022-3-22T12:25:52Z
2022-03-22T10:27:19Z,42.805,6.029,13.3036,4.60049,2470.53,2022-3-22T12:28:55Z
2022-03-22T10:30:22Z,42.805,6.029,13.3024,4.60077,2470.53,2022-3-22T12:31:58Z
2022-03-22T10:33:25Z,42.805,6.029,13.3031,4.60069,2470.544,2022-3-22T12:35:01Z
2022-03-22T10:36:28Z,42.805,6.029,13.3011,4.60077,2470.544,2022-3-22T12:38:04Z
2022-03-22T10:39:31Z,42.805,6.029,13.3034,4.60062,2470.544,2022-3-22T12:41:08Z
2022-03-22T10:42:34Z,42.805,6.029,13.3035,4.60050,2470.497,2022-3-22T12:44:11Z
2022-03-22T10:45:37Z,42.805,6.029,13.3040,4.60060,2470.507,2022-3-22T12:47:14Z
2022-03-22T10:48:41Z,42.805,6.029,13.3049,4.60092,2470.507,2022-3-22T12:50:17Z
2022-03-22T10:51:44Z,42.805,6.029,13.3025,4.60061,2470.53,2022-3-22T12:53:20Z
2022-03-22T10:54:47Z,42.805,6.029,13.3038,4.60066,2470.53,2022-3-22T12:56:23Z
2022-03-22T10:57:50Z,42.805,6.029,13.3054,4.60099,2470.53,2022-3-22T12:59:26Z
2022-03-22T11:00:53Z,42.805,6.029,13.3046,4.60052,2470.52,2022-3-22T13:02:29Z
2022-03-22T11:03:56Z,42.805,6.029,13.3045,4.60103,2470.52,2022-3-22T13:05:33Z
2022-03-22T11:06:59Z,42.805,6.029,13.3061,4.60064,2470.544,2022-3-22T13:08:36Z
2022-03-22T11:10:02Z,42.805,6.029,13.3046,4.60125,2470.52,2022-3-22T13:11:39Z
2022-03-22T11:13:06Z,42.805,6.029,13.3052,4.60122,2470.497,2022-3-22T13:14:42Z
2022-03-22T11:16:09Z,42.805,6.029,13.3023,4.60087,2470.52,2022-3-22T13:17:45Z
2022-03-22T11:19:12Z,42.805,6.029,13.3043,4.60084,2470.52,2022-3-22T13:20:48Z
2022-03-22T11:22:15Z,42.805,6.029,13.3039,4.60096,2470.53,2022-3-22T13:23:51Z
2022-03-22T11:25:18Z,42.805,6.029,13.3051,4.60096,2470.52,2022-3-22T13:26:54Z
2022-03-22T11:28:21Z,42.805,6.029,13.3029,4.60063,2470.53,2022-3-22T13:29:58Z
2022-03-22T11:31:24Z,42.805,6.029,13.3054,4.60101,2470.483,2022-3-22T13:33:01Z
2022-03-22T11:34:27Z,42.805,6.029,13.3024,4.60078,2470.507,2022-3-22T13:36:04Z
2022-03-22T11:37:31Z,42.805,6.029,13.3050,4.60091,2470.52,2022-3-22T13:39:07Z
2022-03-22T11:40:34Z,42.805,6.029,13.3063,4.60102,2470.483,2022-3-22T13:42:10Z
2022-03-22T11:43:37Z,42.805,6.029,13.3044,4.60122,2470.474,2022-3-22T13:45:13Z
2022-03-22T11:46:40Z,42.805,6.029,13.3066,4.60115,2470.483,2022-3-22T13:48:16Z
2022-03-22T11:49:43Z,42.805,6.029,13.3073,4.60119,2470.46,2022-3-22T13:51:20Z
2022-03-22T11:52:46Z,42.805,6.029,13.3069,4.60092,2470.483,2022-3-22T13:54:23Z
2022-03-22T11:55:49Z,42.805,6.029,13.3047,4.60098,2470.483,2022-3-22T13:57:26Z
2022-03-22T11:58:52Z,42.805,6.029,13.3055,4.60059,2470.497,2022-3-22T14:00:29Z
2022-03-22T12:01:56Z,42.805,6.029,13.3022,4.60074,2470.474,2022-3-22T14:03:32Z
2022-03-22T12:04:59Z,42.805,6.029,13.3019,4.60067,2470.516,2022-3-22T14:06:35Z
2022-03-22T12:08:02Z,42.805,6.029,13.3034,4.60071,2470.474,2022-3-22T14:09:38Z
2022-03-22T12:11:05Z,42.805,6.029,13.3052,4.60044,2470.474,2022-3-22T14:12:41Z
2022-03-22T12:14:08Z,42.805,6.029,13.3039,4.60064,2470.45,2022-3-22T14:15:45Z
2022-03-22T12:17:11Z,42.805,6.029,13.3018,4.60062,2470.46,2022-3-22T14:18:48Z
2022-03-22T12:20:14Z,42.805,6.029,13.3011,4.60071,2470.45,2022-3-22T14:21:51Z
2022-03-22T12:23:17Z,42.805,6.029,13.3030,4.60078,2470.474,2022-3-22T14:24:54Z
2022-03-22T12:26:21Z,42.805,6.029,13.3027,4.60075,2470.45,2022-3-22T14:27:57Z
2022-03-22T12:29:24Z,42.805,6.029,13.3022,4.60075,2470.46,2022-3-22T14:31:00Z
2022-03-22T12:32:27Z,42.805,6.029,13.3039,4.60059,2470.45,2022-3-22T14:34:03Z
2022-03-22T12:35:30Z,42.805,6.029,13.3039,4.60074,2470.427,2022-3-22T14:37:06Z
2022-03-22T12:38:33Z,42.805,6.029,13.3029,4.60064,2470.413,2022-3-22T14:40:10Z
2022-03-22T12:41:36Z,42.805,6.029,13.3031,4.60084,2470.45,2022-3-22T14:43:13Z
2022-03-22T12:44:39Z,42.805,6.029,13.3045,4.60074,2470.437,2022-3-22T14:46:16Z
2022-03-22T12:47:42Z,42.805,6.029,13.3021,4.60063,2470.46,2022-3-22T14:49:19Z
2022-03-22T12:50:46Z,42.805,6.029,13.3017,4.60062,2470.427,2022-3-22T14:52:22Z
2022-03-22T12:53:49Z,42.805,6.029,13.3023,4.60051,2470.427,2022-3-22T14:55:25Z
2022-03-22T12:56:52Z,42.805,6.029,13.3024,4.60060,2470.45,2022-3-22T14:58:28Z
2022-03-22T12:59:55Z,42.805,6.029,13.3034,4.60066,2470.474,2022-3-22T15:01:31Z
2022-03-22T13:02:58Z,42.805,6.029,13.3016,4.60082,2470.413,2022-3-22T15:04:35Z
2022-03-22T13:06:01Z,42.805,6.029,13.3034,4.60060,2470.427,2022-3-22T15:07:38Z
2022-03-22T13:09:04Z,42.805,6.029,13.3017,4.60044,2470.437,2022-3-22T15:10:41Z
2022-03-22T13:12:07Z,42.805,6.029,13.3023,4.60080,2470.427,2022-3-22T15:13:44Z
2022-03-22T13:15:11Z,42.805,6.029,13.3024,4.60072,2470.437,2022-3-22T15:16:47Z
2022-03-22T13:18:14Z,42.805,6.029,13.3026,4.60075,2470.39,2022-3-22T15:19:50Z
2022-03-22T13:21:17Z,42.805,6.029,13.3041,4.60060,2470.413,2022-3-22T15:22:53Z
2022-03-22T13:24:20Z,42.805,6.029,13.3018,4.60070,2470.39,2022-3-22T15:25:56Z
2022-03-22T13:27:23Z,42.805,6.029,13.3046,4.60079,2470.427,2022-3-22T15:29:00Z
2022-03-22T13:30:26Z,42.805,6.029,13.3038,4.60070,2470.38,2022-3-22T15:32:03Z
2022-03-22T13:33:29Z,42.805,6.029,13.3033,4.60050,2470.38,2022-3-22T15:35:06Z
2022-03-22T13:36:32Z,42.805,6.029,13.3028,4.60084,2470.404,2022-3-22T15:38:09Z
2022-03-22T13:39:36Z,42.805,6.029,13.3017,4.60054,2470.413,2022-3-22T15:41:12Z
2022-03-22T13:42:39Z,42.805,6.029,13.3017,4.60055,2470.427,2022-3-22T15:44:15Z
2022-03-22T13:45:42Z,42.805,6.029,13.3024,4.60043,2470.39,2022-3-22T15:47:18Z
2022-03-22T13:48:45Z,42.805,6.029,13.3017,4.60068,2470.38,2022-3-22T15:50:21Z
2022-03-22T13:51:48Z,42.805,6.029,13.3015,4.60072,2470.404,2022-3-22T15:53:25Z
2022-03-22T13:54:51Z,42.805,6.029,13.3019,4.60059,2470.366,2022-3-22T15:56:28Z
2022-03-22T13:57:54Z,42.805,6.029,13.3031,4.60066,2470.427,2022-3-22T15:59:31Z
2022-03-22T14:00:57Z,42.805,6.029,13.3026,4.60062,2470.38,2022-3-22T16:02:34Z
2022-03-22T14:04:01Z,42.805,6.029,13.3017,4.60047,2470.404,2022-3-22T16:05:37Z
2022-03-22T14:07:04Z,42.805,6.029,13.3029,4.60049,2470.366,2022-3-22T16:08:40Z
2022-03-22T14:10:07Z,42.805,6.029,13.3039,4.60064,2470.366,2022-3-22T16:11:43Z
2022-03-22T14:13:10Z,42.805,6.029,13.3033,4.60044,2470.38,2022-3-22T16:14:46Z
2022-03-22T14:16:13Z,42.805,6.029,13.3036,4.60062,2470.366,2022-3-22T16:17:50Z
2022-03-22T14:19:16Z,42.805,6.029,13.3036,4.60067,2470.366,2022-3-22T16:20:53Z
2022-03-22T14:22:19Z,42.805,6.029,13.3021,4.60057,2470.366,2022-3-22T16:23:56Z
2022-03-22T14:25:22Z,42.805,6.029,13.3040,4.60054,2470.366,2022-3-22T16:26:59Z
2022-03-22T14:28:26Z,42.805,6.029,13.3023,4.60067,2470.334,2022-3-22T16:30:02Z
2022-03-22T14:31:29Z,42.805,6.029,13.3019,4.60068,2470.366,2022-3-22T16:33:05Z
2022-03-22T14:34:32Z,42.805,6.029,13.3022,4.60066,2470.39,2022-3-22T16:36:08Z
2022-03-22T14:37:35Z,42.805,6.029,13.3034,4.60055,2470.38,2022-3-22T16:39:11Z
2022-03-22T14:40:38Z,42.805,6.029,13.3030,4.60063,2470.404,2022-3-22T16:42:15Z
2022-03-22T14:43:41Z,42.805,6.029,13.3015,4.60076,2470.343,2022-3-22T16:45:18Z
2022-03-22T14:46:44Z,42.805,6.029,13.3022,4.60044,2470.343,2022-3-22T16:48:21Z
2022-03-22T14:49:47Z,42.805,6.029,13.3024,4.60067,2470.38,2022-3-22T16:51:24Z
2022-03-22T14:52:51Z,42.805,6.029,13.3026,4.60066,2470.343,2022-3-22T16:54:27Z
2022-03-22T14:55:54Z,42.805,6.029,13.3029,4.60095,2470.343,2022-3-22T16:57:30Z
2022-03-22T14:58:57Z,42.805,6.029,13.3027,4.60059,2470.357,2022-3-22T17:00:33Z
2022-03-22T15:02:00Z,42.805,6.029,13.3020,4.60049,2470.38,2022-3-22T17:03:36Z
2022-03-22T15:05:03Z,42.805,6.029,13.3039,4.60052,2470.343,2022-3-22T17:06:40Z
2022-03-22T15:08:06Z,42.805,6.029,13.3018,4.60093,2470.366,2022-3-22T17:09:43Z
2022-03-22T15:11:09Z,42.805,6.029,13.3024,4.60067,2470.366,2022-3-22T17:12:46Z
2022-03-22T15:14:12Z,42.805,6.029,13.3035,4.60059,2470.297,2022-3-22T17:15:49Z
2022-03-22T15:17:16Z,42.805,6.029,13.3043,4.60055,2470.334,2022-3-22T17:18:52Z
2022-03-22T15:20:19Z,42.805,6.029,13.3023,4.60051,2470.343,2022-3-22T17:21:55Z
2022-03-22T15:23:22Z,42.805,6.029,13.3024,4.60052,2470.343,2022-3-22T17:24:58Z
2022-03-22T15:26:25Z,42.805,6.029,13.3029,4.60052,2470.32,2022-3-22T17:28:01Z
2022-03-22T15:29:28Z,42.805,6.029,13.3022,4.60057,2470.343,2022-3-22T17:31:05Z
2022-03-22T15:32:31Z,42.805,6.029,13.3031,4.60049,2470.38,2022-3-22T17:34:08Z
2022-03-22T15:35:34Z,42.805,6.029,13.3025,4.60045,2470.357,2022-3-22T17:37:11Z
2022-03-22T15:38:37Z,42.805,6.029,13.3016,4.60057,2470.357,2022-3-22T17:40:14Z